Location: Newark
(60.7180°N, 46.1836°E)
Time: 04:32:56
(UTC+00:00)

ISS - Visible Passes

Search period start: 19 July 2019 00:00
Search period end: 29 July 2019 00:00
Orbit: 409 x 418 km, 51.6° (Epoch: 19 July)

Date Brightness Start Highest point End Pass type
(mag) Time Alt. Az. Time Alt. Az. Time Alt. Az.
19 Jul -2.3 20:21:54 10° SW 20:24:13 18° S 20:26:33 10° SE visible
19 Jul -1.9 21:58:28 10° SW 22:00:02 13° SSW 22:01:35 10° S visible
20 Jul -2.2 19:32:51 10° SW 19:35:08 17° S 19:37:26 10° SE visible
20 Jul -2.0 21:09:01 10° SW 21:10:59 15° SSW 21:12:35 11° SSE visible
21 Jul -2.1 20:19:44 10° SW 20:21:56 16° S 20:23:54 11° SSE visible
22 Jul -2.1 19:30:32 10° SW 19:32:51 17° S 19:35:09 10° SE visible
22 Jul -1.6 21:07:34 10° SW 21:08:27 11° SSW 21:08:27 11° SSW visible
23 Jul -1.8 20:17:51 10° SW 20:19:33 13° SSW 20:20:24 12° S visible
24 Jul -1.9 19:28:25 10° SW 19:30:28 15° SSW 19:32:26 10° SSE visible
26 Jul -1.6 19:26:43 10° SW 19:28:00 12° SSW 19:29:17 10° S visible
